This is the latest recevied weather packets stored in our database for station/object WD9EKA. If no packets are shown the sender has not sent any weather packets the latest 10 day(s).
| Time | Temp. | Humidity | Pressure | Rain* | Wind** | Luminosity | Snow |
|---|---|---|---|---|---|---|---|
| 1787364169 | 20° C | 99% | 1010.5 hPa | 0 mm | - | - | - |
| 1787363850 | 19.44° C | 99% | 1010.5 hPa | 0 mm | - | - | - |
| 1787363530 | 19.44° C | 99% | 1010.5 hPa | 0 mm | - | - | - |
| 1787363209 | 19.44° C | 99% | 1010.4 hPa | 0 mm | - | - | - |
| 1787362890 | 19.44° C | 99% | 1010.3 hPa | 0 mm | - | - | - |
| 1787362570 | 19.44° C | 99% | 1010.2 hPa | 0 mm | - | - | - |
| 1787362250 | 19.44° C | 98% | 1010 hPa | 0 mm | - | - | - |
| 1787361929 | 19.44° C | 98% | 1010.1 hPa | 0 mm | - | - | - |
| 1787361610 | 20° C | 98% | 1010 hPa | 0 mm | - | - | - |
| 1787361290 | 19.44° C | 97% | 1010.2 hPa | 0 mm | - | - | - |
| 1787360969 | 20° C | 97% | 1010.1 hPa | 0 mm | - | - | - |
| 1787360634 | 20° C | 96% | 1010.1 hPa | 0 mm | - | - | - |
| 1787360313 | 20° C | 95% | 1010 hPa | 0 mm | - | - | - |
| 1787359994 | 20.56° C | 94% | 1009.8 hPa | 0 mm | - | - | - |
| 1787359673 | 20.56° C | 94% | 1009.9 hPa | 0 mm | - | - | - |
| 1787359353 | 21.11° C | 93% | 1009.8 hPa | 0 mm | - | - | - |
| 1787359018 | 21.67° C | 91% | 1009.9 hPa | 0 mm | - | - | - |
| 1787358698 | 22.22° C | 91% | 1009.9 hPa | 0 mm | - | - | - |
| 1787358377 | 22.22° C | 89% | 1010 hPa | 0 mm | - | - | - |
| 1787358057 | 22.78° C | 87% | 1009.6 hPa | 0 mm | - | - | - |
| 1787357737 | 23.33° C | 86% | 1009.8 hPa | 0 mm | - | - | - |
| 1787357417 | 23.89° C | 85% | 1009.9 hPa | 0 mm | - | - | - |
| 1787357098 | 24.44° C | 84% | 1009.9 hPa | 0 mm | - | - | - |
* Rain latest hour (hover to see other rain measurements)
** Current wind speed in m/s (hover to see current wind gust speed)